Вернуться в каталог

ONEWEB-0049

АктивенСвязьPO
NORAD 45154·PAYLOAD·🇬🇧 United Kingdom

Запущен Feb 6, 2020 с Baikonur Cosmodrome

Loading…

Ближайшие Пролёты (ближайшие 24 часа)

TLE

СвежийSource: CelesTrak SupGP

Эпоха: Sep 14, 2026, 19:32 UTC

1 45154C 20008Z   26257.81442544  .00002661  00000+0  76309-2 0  2571
2 45154  87.8903  18.4283 0001761 115.1647 355.6125 13.10371937    15

Отслеживайте ONEWEB-0049 в реальном времени с AllMySat

Download on the App Store